{"data":{"norad_id":56331,"epoch":"2026-09-20T22:00:03.000096Z","epoch_age_seconds":72497,"freshness":"FRESH","line1":"1 56331U 23058Q   26263.91670139  .00083332  00000+0  35473-2 0  9993","line2":"2 56331  97.2865 257.7997 0001707  59.5592 100.7008 15.22642070  5788","mean_motion":15.2264207,"eccentricity":0.0001707,"inclination_deg":97.2865,"raan_deg":257.7997,"arg_perigee_deg":59.5592,"mean_anomaly_deg":100.7008,"bstar":0.0035473,"rev_number":578,"period_min":94.572455889124,"perigee_km":496.70124425673,"apogee_km":499.04871474653,"semimajor_km":6876.0119795016,"source":"CELESTRAK","updated_at":"2026-09-21T09:00:33.403097Z"}}